This demonstration page uses our WeatherBlox Daily Observations layout. Learn more.

Left ArrowRight Arrow

44.89941, -97.11507

Hourly Observations for January 13, 2023

Temp ( °F °C ) Dew Point ( °F °C ) Humidity (%) Winds ( mph kmh ) Pressure ( in mb ) Visibility ( mi km ) Precip ( " mm )
12:37 am 00:37 Cloudy with Freezing Fog 10 -12.2 8 -13.3 91 91 N 3 6 30.53 1034 0 0 0.01 0.13
12:53 am 00:53 Cloudy with Light Snow 9 -12.8 8 -13.3 96 96 NW 5 7 30.48 1032 1 1 0.01 0.13
1:15 am 01:15 Cloudy with Freezing Fog 10 -12.2 8 -13.3 91 91 N 3 6 30.53 1034 0 0 0.01 0.13
1:41 am 01:41 Cloudy with Freezing Fog 9 -12.8 8 -13.3 96 96 Calm 30.55 1034 1 1 0.01 0.13
1:53 am 01:53 Cloudy with Freezing Fog 9 -12.8 8 -13.3 96 96 WNW 5 7 30.49 1033 1 1 0.01 0.13
2:53 am 02:53 Cloudy with Freezing Fog 9 -12.8 7 -13.9 91 91 N 6 9 30.50 1033 1 1 0.00 0.00
3:53 am 03:53 Cloudy with Freezing Fog 7 -13.9 6 -14.4 96 96 NNE 3 6 30.49 1033 1 1 0.01 0.13
4:14 am 04:14 Cloudy with Freezing Fog 7 -13.9 6 -14.4 96 96 Calm 30.55 1034 0 0 0.00 0.00
4:23 am 04:23 Cloudy with Freezing Fog 6 -14.4 5 -15 95 95 Calm 30.56 1035 1 1 0.00 0.00
4:33 am 04:33 Cloudy with Freezing Fog 6 -14.4 4 -15.6 91 91 Calm 30.55 1035 0 0 0.00 0.00
4:42 am 04:42 Cloudy with Freezing Fog 6 -14.4 5 -15 95 95 Calm 30.56 1035 1 1 0.00 0.00
4:53 am 04:53 Cloudy with Freezing Fog 6 -14.4 5 -15 95 95 Calm 30.48 1032 0 0 0.00 0.00
5:39 am 05:39 Cloudy with Freezing Fog 5 -15 2 -16.7 87 87 WSW 6 9 30.57 1035 1 1 0.00 0.00
5:53 am 05:53 Cloudy with Freezing Fog 4 -15.6 2 -16.7 91 91 WSW 3 6 30.48 1032 1 1 0.00 0.00
6:15 am 06:15 Cloudy with Freezing Fog 4 -15.6 3 -16.1 96 96 SSW 3 6 30.55 1035 0 0 0.00 0.00
6:36 am 06:36 Cloudy with Freezing Fog 4 -15.6 2 -16.7 91 91 S 3 6 30.54 1034 1 1 0.00 0.00
6:55 am 06:55 Cloudy with Mist and Fog 2 -16.7 1 -17.2 96 96 SSE 5 7 30.54 1034 2 3 0.00 0.00
7:06 am 07:06 Cloudy with Mist and Fog 2 -16.7 0 -17.8 91 91 S 6 9 30.54 1034 1 2 0.00 0.00
7:17 am 07:17 Cloudy with Mist and Fog 1 -17.2 0 -17.8 95 95 S 6 9 30.55 1034 2 3 0.00 0.00
7:25 am 07:25 Cloudy 1 -17.2 -1 -18.3 91 91 SSE 6 9 30.55 1034 7 11 0.00 0.00
7:53 am 07:53 Cloudy with Mist and Fog 0 -17.8 -2 -18.9 91 91 SSE 5 7 30.45 1031 3 5 0.00 0.00
8:02 am 08:02 Cloudy with Mist and Fog 1 -17.2 -1 -18.3 91 91 SSE 5 7 30.53 1034 2 3 0.00 0.00
8:12 am 08:12 Mostly Cloudy 0 -17.8 -2 -18.9 91 91 SSE 6 9 30.54 1034 7 11 0.00 0.00
8:21 am 08:21 Partly Cloudy 0 -17.8 -2 -18.9 91 91 SSE 7 11 30.54 1034 8 13 0.00 0.00
8:53 am 08:53 Sunny 1 -17.2 -1 -18.3 91 91 SSE 9 15 30.45 1031 10 16 0.00 0.00
9:44 am 09:44 Partly Cloudy with Mist and Fog 2 -16.7 1 -17.2 96 96 SSE 6 9 30.53 1034 3 4 0.00 0.00
9:53 am 09:53 Partly Cloudy with Mist and Fog 2 -16.7 0 -17.8 91 91 S 9 15 30.45 1031 2 3 0.00 0.00
9:56 am 09:56 Partly Cloudy with Mist and Fog 2 -16.7 0 -17.8 91 91 S 7 11 30.53 1034 3 5 0.00 0.00
10:53 am 10:53 Sunny 5 -15 2 -16.7 87 87 S 10 17 30.43 1031 10 16 0.00 0.00
11:53 am 11:53 Sunny 8 -13.3 5 -15 87 87 SSE 8 13 30.41 1030 10 16 0.00 0.00
12:53 pm 12:53 Sunny 10 -12.2 6 -14.4 84 84 SSE 13 20 30.37 1028 10 16 0.00 0.00
1:53 pm 13:53 Sunny 11 -11.7 7 -13.9 84 84 SSE 10 17 30.33 1027 10 16 0.00 0.00
2:53 pm 14:53 Sunny 12 -11.1 8 -13.3 84 84 SSE 14 22 30.28 1026 10 16 0.00 0.00
3:53 pm 15:53 Sunny 12 -11.1 8 -13.3 84 84 SSE 10 17 30.30 1026 10 16 0.00 0.00
4:53 pm 16:53 Sunny 10 -12.2 7 -13.9 87 87 SSE 14 22 30.27 1025 10 16 0.00 0.00
5:53 pm 17:53 Clear 10 -12.2 6 -14.4 84 84 SSE 14 22 30.24 1024 10 16 0.00 0.00
6:53 pm 18:53 Clear 10 -12.2 7 -13.9 87 87 SSE 17 28 30.22 1024 10 16 0.00 0.00
7:53 pm 19:53 Clear 10 -12.2 7 -13.9 87 87 SSE 15 24 30.22 1023 10 16 0.00 0.00
8:53 pm 20:53 Clear 11 -11.7 8 -13.3 88 88 SSE 17 28 30.18 1022 10 16 0.00 0.00
9:53 pm 21:53 Clear 11 -11.7 8 -13.3 88 88 S 16 26 30.16 1021 10 16 0.00 0.00
10:53 pm 22:53 Clear 11 -11.7 9 -12.8 91 91 SSE 15 24 30.13 1020 10 16 0.00 0.00
11:53 pm 23:53 Clear 12 -11.1 10 -12.2 92 92 SSE 14 22 30.11 1020 8 13 0.00 0.00

Powered by AerisWeather